Le nostre stazioni meteo in Italia

Pubblicità
Il mio iltempo24.it
Dunstaffnage, Gran Bretagna (99006): Temperatura & dewpoint: 05.12.2018 01:00:00 - 11.12.2018 01:00:00 (GMT)Dunstaffnage, Gran Bretagna (99006): Temperatura -20cm: 05.12.2018 01:00:00 - 11.12.2018 01:00:00 (GMT)Dunstaffnage, Gran Bretagna (99006): velocità del vento & gusts: 05.12.2018 01:00:00 - 11.12.2018 01:00:00 (GMT)Dunstaffnage, Gran Bretagna (99006): direzione del vento: 05.12.2018 01:00:00 - 11.12.2018 01:00:00 (GMT)Dunstaffnage, Gran Bretagna (99006): precipitazioni: 05.12.2018 01:00:00 - 11.12.2018 01:00:00 (GMT)
Data & Tempo tt [°C] td [°C] tt -20cm [°C] ff [km/h] ff [kn] fx [km/h] fx [kn] dd rr [mm]
11.12.2018 01:00:00 7,8 4,6 - 16 9 - - ESE 0,0
11.12.2018 00:00:00 7,6 4,2 - 18 10 - - ESE 0,0
10.12.2018 23:00:00 7,2 4,1 - 18 10 - - ESE 0,0
10.12.2018 22:00:00 7,0 4,1 - 15 8 - - E 0,0
10.12.2018 21:00:00 6,6 3,6 - 18 10 - - ESE 0,0
10.12.2018 20:00:00 6,9 3,9 - 18 10 - - ESE 0,0
10.12.2018 19:00:00 6,0 3,3 - 15 8 - - E 0,0
10.12.2018 18:00:00 5,8 3,7 - 13 7 - - ESE 0,0
10.12.2018 17:00:00 4,9 3,2 - 11 6 - - E 0,0
10.12.2018 16:00:00 4,8 2,9 - 8 4 - - E 0,0
10.12.2018 15:00:00 5,0 3,2 - 13 7 - - E 0,0
10.12.2018 14:00:00 5,0 3,4 - 11 6 - - E 0,0
10.12.2018 13:00:00 - - - - - - - - -
10.12.2018 12:00:00 4,0 2,9 - 8 4 - - ENE 0,0
10.12.2018 11:00:00 3,4 3,1 - 13 7 - - E 0,0
10.12.2018 10:00:00 1,6 1,3 - 8 4 - - ENE 0,0
10.12.2018 09:00:00 0,8 0,4 5,7 2 1 - - SSO 0,0
10.12.2018 08:00:00 0,9 0,5 - 2 1 - - SO 0,0
10.12.2018 07:00:00 1,1 0,6 - 2 1 - - SSO 0,0
10.12.2018 06:00:00 1,4 0,8 - 2 1 - - SO 0,0
10.12.2018 05:00:00 1,7 1,0 - 0 0 - - N 0,0
10.12.2018 04:00:00 1,6 0,4 - 4 2 - - OSO 0,0
10.12.2018 03:00:00 3,8 1,8 - 8 4 - - NE 0,0
10.12.2018 02:00:00 5,8 2,6 - 11 6 - - ONO 0,0
10.12.2018 01:00:00 2,8 1,8 - 8 4 - - O 0,0
10.12.2018 00:00:00 3,7 2,6 - 4 2 - - SO 0,0
09.12.2018 23:00:00 4,7 2,3 - 8 4 - - SO 0,0
09.12.2018 22:00:00 6,5 4,2 - 18 10 - - O 0,0
09.12.2018 21:00:00 6,2 3,3 - 8 4 - - ONO 0,2
09.12.2018 20:00:00 6,6 4,0 - 15 8 - - O 0,0
09.12.2018 19:00:00 6,5 3,9 - 13 7 - - O 0,0
09.12.2018 18:00:00 6,4 3,4 - 18 10 - - O 0,0
09.12.2018 17:00:00 6,0 2,7 - 15 8 - - ONO 0,0
09.12.2018 16:00:00 6,0 2,7 - 15 8 - - ONO 0,0
09.12.2018 15:00:00 7,2 2,9 - 18 10 - - ONO 0,0
09.12.2018 14:00:00 7,3 3,4 - 21 11 - - ONO 0,0
09.12.2018 13:00:00 7,4 2,5 - 18 10 - - NO 0,0
09.12.2018 12:00:00 6,4 3,5 - 11 6 - - O 0,0
09.12.2018 11:00:00 6,0 2,5 - 5 3 - - OSO 0,0
09.12.2018 10:00:00 5,4 1,4 - 8 4 - - SO 0,0
09.12.2018 09:00:00 6,9 1,7 6,5 15 8 - - NO 0,0
09.12.2018 08:00:00 6,2 2,8 - 13 7 - - ONO 0,0
09.12.2018 07:00:00 6,8 2,8 - 13 7 - - NO 0,0
09.12.2018 06:00:00 6,8 3,9 - 13 7 - - NO 0,0
09.12.2018 05:00:00 6,8 3,6 - 15 8 - - NO 0,0
09.12.2018 04:00:00 7,1 3,7 - 13 7 - - NO 0,0
09.12.2018 03:00:00 6,3 4,5 - 5 3 - - N 0,0
09.12.2018 02:00:00 7,3 4,3 - 11 6 - - NO 0,0
09.12.2018 01:00:00 7,0 4,4 - 13 7 - - NO 0,0
09.12.2018 00:00:00 6,8 5,6 - 13 7 - - O 0,0
08.12.2018 23:00:00 6,0 5,2 - 5 3 - - OSO 0,0
08.12.2018 22:00:00 7,3 6,1 - 9 5 - - O 0,0
08.12.2018 21:00:00 7,3 6,0 - 11 6 - - ONO 0,0
08.12.2018 20:00:00 7,3 5,6 - 11 6 - - O 0,0
08.12.2018 19:00:00 7,4 5,9 - 15 8 - - O 0,0
08.12.2018 18:00:00 7,6 6,0 - 11 6 - - O 0,0
08.12.2018 17:00:00 6,9 5,3 - 8 4 - - SO 0,0
08.12.2018 16:00:00 7,5 5,7 - 13 7 - - SO 0,0
08.12.2018 15:00:00 8,2 5,7 - 9 5 - - OSO 0,0
08.12.2018 14:00:00 8,5 5,2 - 8 4 - - O 0,2
08.12.2018 13:00:00 9,1 5,7 - 9 5 - - OSO 0,0
08.12.2018 12:00:00 8,7 5,6 - 21 11 - - O 0,0
08.12.2018 11:00:00 8,9 5,9 - 22 12 - - O 0,0
08.12.2018 10:00:00 8,8 5,6 - 35 19 50 27 O 0,0
08.12.2018 09:00:00 9,0 6,1 6,7 31 17 - - O 0,0
08.12.2018 08:00:00 8,6 6,4 - 35 19 55 30 O 0,0
08.12.2018 07:00:00 8,9 6,9 - 34 18 55 30 O 0,8
08.12.2018 06:00:00 8,6 6,9 - 34 18 55 30 O 0,8
08.12.2018 05:00:00 9,4 6,7 - 39 21 63 34 O 0,0
08.12.2018 04:00:00 8,7 7,1 - 42 23 68 37 O 1,0
08.12.2018 03:00:00 8,5 7,3 - 48 26 76 41 O 0,8
08.12.2018 02:00:00 8,4 6,6 - 50 27 74 40 O 0,6
08.12.2018 01:00:00 8,6 7,3 - 44 24 72 39 O 0,8
08.12.2018 00:00:00 8,8 6,5 - 42 23 63 34 O 0,2
07.12.2018 23:00:00 8,5 6,9 - 39 21 57 31 O 0,6
07.12.2018 22:00:00 9,2 6,0 - 34 18 54 29 O 0,0
07.12.2018 21:00:00 9,4 6,4 - 42 23 63 34 O 0,4
07.12.2018 20:00:00 8,7 6,9 - 31 17 52 28 OSO 0,6
07.12.2018 19:00:00 8,6 6,7 - 41 22 63 34 O 0,8
07.12.2018 18:00:00 8,8 6,6 - 29 16 57 31 OSO 0,2
07.12.2018 17:00:00 8,5 5,8 - 41 22 70 38 OSO 1,2
07.12.2018 16:00:00 8,2 6,1 - 39 21 68 37 OSO 1,2
07.12.2018 15:00:00 7,5 5,8 - 37 20 61 33 OSO 1,6
07.12.2018 14:00:00 8,0 5,5 - 35 19 67 36 OSO 0,2
07.12.2018 13:00:00 7,4 5,1 - 39 21 68 37 OSO 1,0
07.12.2018 12:00:00 8,3 4,8 - 35 19 63 34 OSO 0,4
07.12.2018 11:00:00 8,2 4,0 - 31 17 80 43 OSO 0,0
07.12.2018 10:00:00 7,1 4,2 - 39 21 85 46 OSO 2,0
07.12.2018 09:00:00 7,8 5,2 6,7 29 16 61 33 SO 0,4
07.12.2018 08:00:00 7,1 4,6 - 31 17 65 35 OSO 1,2
07.12.2018 07:00:00 7,9 4,7 - 28 15 70 38 SO 2,0
07.12.2018 06:00:00 8,4 5,1 - 31 17 61 33 SO 0,2
07.12.2018 05:00:00 9,6 5,1 - 31 17 70 38 OSO 0,2
07.12.2018 04:00:00 11,1 9,3 - 21 11 - - S 0,2
07.12.2018 03:00:00 9,4 8,0 - 15 8 - - SSE 0,4
07.12.2018 02:00:00 8,6 6,9 - 11 6 - - ESE 0,4
07.12.2018 01:00:00 9,0 6,3 - 22 12 - - ESE 0,0
07.12.2018 00:00:00 9,0 6,9 - 9 5 - - ESE 0,0
06.12.2018 23:00:00 9,2 7,4 - 9 5 - - SSE 0,0
06.12.2018 22:00:00 9,3 7,6 - 11 6 - - S 0,0
06.12.2018 21:00:00 9,7 8,4 - 9 5 - - SO 0,0
06.12.2018 20:00:00 9,4 8,0 - 9 5 - - SO 0,0
06.12.2018 19:00:00 9,7 8,5 - 11 6 - - OSO 0,0
06.12.2018 18:00:00 9,6 7,4 - 8 4 - - SO 0,0
06.12.2018 17:00:00 9,8 7,5 - 15 8 - - OSO 0,0
06.12.2018 16:00:00 10,1 8,6 - 15 8 - - OSO 0,2
06.12.2018 15:00:00 10,4 8,4 - 21 11 - - OSO 0,0
06.12.2018 14:00:00 10,1 8,3 - 16 9 - - SO 0,2
06.12.2018 13:00:00 10,8 8,8 - 22 12 - - O 0,2
06.12.2018 12:00:00 10,9 9,7 - 22 12 - - OSO 0,2
06.12.2018 11:00:00 11,4 10,5 - 28 15 57 31 OSO 0,4
06.12.2018 10:00:00 11,4 10,7 - 28 15 48 26 SO 0,4
06.12.2018 09:00:00 10,8 9,9 5,5 18 10 - - SSO 1,2
06.12.2018 08:00:00 10,1 9,1 - 18 10 - - S 1,6
06.12.2018 07:00:00 8,4 7,5 - 9 5 - - SE 1,2
06.12.2018 06:00:00 7,5 6,4 - 21 11 - - ESE 0,8
06.12.2018 05:00:00 7,2 5,6 - 18 10 - - ESE 0,2
06.12.2018 04:00:00 7,0 5,1 - 18 10 - - ESE 0,0
06.12.2018 03:00:00 7,0 5,2 - 9 5 - - S 0,0
06.12.2018 02:00:00 6,4 4,7 - 5 3 - - SSO 0,0
06.12.2018 01:00:00 6,8 4,5 - 2 1 - - OSO 0,0
06.12.2018 00:00:00 6,8 4,2 - 8 4 - - S 0,0
05.12.2018 23:00:00 6,3 3,5 - 8 4 - - SSO 0,0
05.12.2018 22:00:00 7,1 3,6 - 15 8 - - E 0,0
05.12.2018 21:00:00 6,6 3,3 - 16 9 - - ESE 0,0
05.12.2018 20:00:00 5,7 2,5 - 11 6 - - ESE 0,0
05.12.2018 19:00:00 6,0 2,6 - 16 9 - - ESE 0,0
05.12.2018 18:00:00 5,8 2,9 - 2 1 - - SO 0,0
05.12.2018 17:00:00 6,1 2,6 - 8 4 - - ESE 0,0
05.12.2018 16:00:00 6,2 2,7 - 22 12 - - ESE 0,0
05.12.2018 15:00:00 6,4 3,1 - 13 7 - - E 0,0
05.12.2018 14:00:00 5,9 3,2 - 9 5 - - E 0,0
05.12.2018 13:00:00 5,9 1,9 - 11 6 - - E 0,0
05.12.2018 12:00:00 6,0 1,5 - 21 11 - - E 0,0
05.12.2018 11:00:00 5,2 0,6 - 16 9 - - E 0,0
05.12.2018 10:00:00 3,8 0,6 - 13 7 - - E 0,0
05.12.2018 09:00:00 3,7 0,5 5,2 15 8 - - ESE 0,0
05.12.2018 08:00:00 2,6 0,4 - 8 4 - - E 0,0
05.12.2018 07:00:00 2,7 0,6 - 15 8 - - E 0,0
05.12.2018 06:00:00 2,4 0,7 - 16 9 - - E 0,0
05.12.2018 05:00:00 2,1 0,7 - 16 9 - - E 0,0
05.12.2018 04:00:00 2,2 0,7 - 13 7 - - E 0,0
05.12.2018 03:00:00 2,6 1,3 - 15 8 - - E 0,0
05.12.2018 02:00:00 2,8 1,7 - 15 8 - - E 0,0
05.12.2018 01:00:00 2,6 1,9 - 16 9 - - ESE 0,0

tt = Temperatura
td = dewpoint
tt -20cm = Temperatura -20cm
ff = velocità del vento
fx = gusts
dd = direzione del vento
rr = precipitazioni

Stazioni seguenti

WeatherPro
AMSI
MeteoEarth